CZ-6A DEB, 61833

Orbit data source: Space-Track

CZ-6A DEB, 61833 is space debris in LEO originally from a launch on Tue, 06 Aug 2024 UTC launched from the Taiyaun Space Center, China (TSC). Debris objects in space refer to the collection of defunct objects orbiting the Earth. Examples of debris include non-operational satellites, rocket bodies, and fragments generated from explosions, collisions, or faulty payload assembly.

Loading next visibility...
Identifier
61833, 2024-140ACZ
Orbit
LEO
Country
Flag of CNCN / PRC
Related business
Manufacturer
SAST
Mission
Spacecraft
Bus & Motor
Unknown
Mass
Unknown
Launch date (UTC)
2024-08-06 (2 years ago)
Launch vehicle
Unknown
Launch site
Taiyaun Space Center, China (TSC)
Object type
Payload
Rocket body
Debris
Shape & HBR
Unknown shape, 0.1 m
Radar Cross Section
Medium (>0.1 m² and <1 m²)

Expand to show TLE details & history
Last TLE update: 2 days ago

TLE from 2 days ago
0 CZ-6A DEB
1 61833U 24140ACZ 26169.96289195  .00007174  00000-0  13500-2 0  9995
2 61833  88.8546 258.1805 0051901 289.1072  70.4527 14.63650081 92916
Epoch: 2026-06-18T23:06Z
TLE epoch observation values (Epoch: 2026-06-18T23:06:33.864Z)
Latitude
0.00002°
Longitude
4.34071°
Altitude
672.435 km
Speed
7.527 km/s
True Right ascension
17h 12m 43s
True Declination
0° 00' 00"
Sunlit
Object was in full shadow at epoch
Visualization orbit readout
Latitude
Unknown
Longitude
Unknown
Altitude
Unknown
Speed
Unknown
Apparent Right ascension
Unknown
Apparent Declination
Unknown
Sunlit
N/A
Visualization observer readout
Local Sidereal Time
07:19:48
Azimuth
Unknown
Elevation
Unknown
Doppler factor
Unknown
Orbital elements
Apogee altitude
714.926 km
Perigee altitude
641.679 km
Semi-major axis
7,056.439 km
Eccentricity
0.00519
Inclination
88.8546°
RAAN
258.1805°
Arg. of periapsis
289.1072°
True anomaly
71.01437°
Mean anomaly
70.4527°
Eccentric anomaly
70.73342°
Mean motion
3.66155 °/min
Orbital period
98.32 mins
BSTAR
0.00135
Loading maneuver chart data...
Computing Atmospheric mass density...
Loading historical data...
Loading historical data...
Loading historical data...
Loading historical data...
Loading historical data...
Loading historical data...
Loading historical data...

Documentation

Showing up to 5 results
|